014  
ASUS43 KIWX 240610  
RWRIWX  
 
KIWX WEATHER ROUNDUP  
NATIONAL WEATHER SERVICE NORTHERN INDIANA  
200 AM EDT FRI MAR 24 2017  
 
NOTE: "FAIR" INDICATES FEW OR NO CLOUDS BELOW 12,000 FEET WITH NO  
SIGNIFICANT WEATHER AND/OR S TO VISIBILITY
.  
 
* THESE STATIONS ARE NOT UNDER NWS QUALITY CONTROL. THEY ALSO MAY NOT  
REPORT WEATHER SUCH AS PRECIPITATION OR FOG.
 
 
INZ001>027-240700-  
NORTHERN INDIANA  
 
CITY SKY/WX TMP DP RH WIND PRES REMARKS
 
GARY* PTCLDY 50 30 45 S3 30.03R  
VALPARAISO CLOUDY 48 35 60 S3 30.04R  
6HR MIN TEMP: 47; 6HR MAX TEMP: 49; 6HR PCP: TRACE;  
 
MICHIGAN CITY* CLOUDY 46 32 57 SE3 30.05R  
LAPORTE* CLOUDY 45 34 64 SE5 30.05R  
6HR MIN TEMP: 42; 6HR MAX TEMP: 47; 6HR PCP: 0.02;  
 
KNOX* PTCLDY 46 12 25 S10 30.02S  
SOUTH BEND CLOUDY 46 36 68 SE7 30.06F  
6HR MIN TEMP: 43; 6HR MAX TEMP: 48; 6HR PCP: 0.08;  
 
GOSHEN CLOUDY 49 34 56 S10 30.06S  
6HR MIN TEMP: 44; 6HR MAX TEMP: 50; 6HR PCP: 0.04;  
 
MONTICELLO* PTCLDY 52 34 50 S13G18 30.01F  
6HR MIN TEMP: 49; 6HR MAX TEMP: 52;  
 
LOGANSPORT* CLEAR 48 36 61 S10 30.05F  
ROCHESTER* PTCLDY 50 36 57 S6 30.05S  
WARSAW* CLOUDY 48 34 57 S5 30.06S  
ANGOLA* CLOUDY 43 32 65 SE7 30.08F  
FORT WAYNE CLOUDY 49 36 61 S10 30.08F  
6HR MIN TEMP: 45; 6HR MAX TEMP: 49; 6HR PCP: 0.04;  
 
HUNTINGTON* MOCLDY 47 35 61 S8 30.07S  
6HR MIN TEMP: 45; 6HR MAX TEMP: 48; 6HR PCP: 0.02;  
 
PERU/GRISSOM CLOUDY 51 36 57 S12G22 30.02F  
6HR MIN TEMP: 48; 6HR MAX TEMP: 51; 6HR PCP: TRACE;  
 
MARION* PTCLDY 51 37 58 S18G26 30.07F  
6HR MIN TEMP: 26; 6HR MAX TEMP: 51;  
 

 
INZ028>050-240700-  
CENTRAL INDIANA  
 
CITY SKY/WX TMP DP RH WIND PRES REMARKS
 
LAFAYETTE CLEAR 50 36 58 S10G18 30.01F  
6HR MIN TEMP: 50; 6HR MAX TEMP: 52; 6HR PCP: TRACE;  
 
KOKOMO* CLOUDY 49 36 61 S15 30.06F  
6HR MIN TEMP: 48; 6HR MAX TEMP: 51; 6HR PCP: TRACE;  
 
MUNCIE* CLOUDY 55 35 47 S15G23 30.08F  
6HR MIN TEMP: 53; 6HR MAX TEMP: 55; 6HR PCP: TRACE;  
 
INDIANAPOLIS PTCLDY 52 35 52 S14 30.08F  
6HR MIN TEMP: 50; 6HR MAX TEMP: 55;  
 

 
MIZ043>046-050>051-056>058-064>065-071>073-077>080-240700-  
SOUTHWEST LOWER MICHIGAN  
 
CITY SKY/WX TMP DP RH WIND PRES REMARKS
 
BATTLE CREEK CLOUDY 41 38 89 SE10 30.04F  
6HR MIN TEMP: 41; 6HR MAX TEMP: 46; 6HR PCP: 0.26;  
 
BENTON HARBOR CLOUDY 43 36 76 SE6 30.03F  
6HR MIN TEMP: 43; 6HR MAX TEMP: 46; 6HR PCP: 0.06;  
 
COLDWATER* CLOUDY 41 36 81 SE7 30.07F  
6HR MIN TEMP: 40; 6HR MAX TEMP: 46;  
 
HILLSDALE* LGT RAIN 37 34 87 SE7 30.07F  
HOLLAND CLOUDY 43 36 76 S15 29.99F  
6HR MIN TEMP: 39; 6HR MAX TEMP: 46; 6HR PCP: 0.23;  
 
GRAND RAPIDS CLOUDY 42 37 82 S12G21 30.00F  
6HR MIN TEMP: 39; 6HR MAX TEMP: 45; 6HR PCP: 0.24;  
 
KALAMAZOO CLOUDY 42 35 76 SE6 30.05F  
6HR MIN TEMP: 41; 6HR MAX TEMP: 47; 6HR PCP: 0.17;  
 
STURGIS* CLOUDY 43 36 76 SE9 30.06F  
6HR MIN TEMP: 41; 6HR MAX TEMP: 46; 6HR PCP: 0.04;  
 
THREE RIVERS* CLOUDY 43 36 76 S7 30.06F  
6HR MIN TEMP: 41; 6HR MAX TEMP: 46;  
 

 
OHZ001>008-015>018-024>025-240700-  
NORTHWEST OHIO  
 
CITY SKY/WX TMP DP RH WIND PRES REMARKS
 
WAUSEON* LGT RAIN 41 37 87 E3 30.13R  
DEFIANCE CLOUDY 44 33 65 SE3 30.11F  
6HR MIN TEMP: 41; 6HR MAX TEMP: 47; 6HR PCP: 0.06;  
 
FINDLAY CLOUDY 45 36 70 SE7 30.13F  
6HR MIN TEMP: 44; 6HR MAX TEMP: 47; 6HR PCP: 0.06;  
 
TOLEDO EXPRESS LGT RAIN 39 37 92 CALM 30.13F  
6HR MIN TEMP: 36; 6HR MAX TEMP: 40; 6HR PCP: 0.16;  
 
TOLEDO METCALF CLOUDY 40 37 89 SE8 30.14F  
6HR MIN TEMP: 35; 6HR MAX TEMP: 41; 6HR PCP: 0.12;  
 
LIMA CLOUDY 47 38 71 S10 30.12F  
6HR MIN TEMP: 44; 6HR MAX TEMP: 49; 6HR PCP: 0.01;  
 

 
AND FOR LAKE MICHIGAN COASTAL AND OPEN LAKE BUOY OBSERVATIONS  
 
STATION/POSITION TEMP WIND PRES VSBY WAVE
 
AIR SEA DIR/SP/G HT/PER  
(F) (DEG/KT/KT) (MB) (MI) (FT/S)  
CALUMET HARBOR 140/ 3/ 4 1015.7S  
MICHIGAN CITY 49 170/ 7/ 8 N/A  
BURNS HARBOR 50 200/ 8/ 15 1017.6R  
 

 

 
 
 
CLICK HERE TO GO TO PREVIOUS BULLETINS.

The Nexlab IN Page
The Nexlab OH Page
The Nexlab MI Page Main Text Page